GW5670 Weather Reports


time (UTC)temp
C
wind
direction
speed
KPH
gust
KPH
rain 1hr
cm
rain 24hr
cm
rain mn
cm
humidity
%
barometer
mb
20260505195244 27 14 16.1 20.9 0.00 0.00 0.00 34 1012.4
20260505194741 27 9 25.7 33.8 0.00 0.00 0.00 34 1012.5
20260505194238 27 22 40.2 51.5 0.00 0.00 0.00 34 1012.3
20260505193733 27 14 30.6 35.4 0.00 0.00 0.00 34 1012.2
20260505193231 26 332 25.7 33.8 0.00 0.00 0.00 36 1012.3
20260505192730 26 345 25.7 30.6 0.00 0.00 0.00 35 1012.5
20260505192227 27 297 6.4 8.0 0.00 0.00 0.00 36 1012.4
20260505191725 27 306 22.5 25.7 0.00 0.00 0.00 35 1012.5
20260505191223 26 31 16.1 22.5 0.00 0.00 0.00 36 1012.6
20260505190719 27 296 25.7 30.6 0.00 0.00 0.00 36 1012.7
20260505190219 27 36 17.7 22.5 0.00 0.00 0.00 37 1012.8
20260505185716 26 331 17.7 38.6 0.00 0.00 0.00 37 1012.8
20260505185212 26 13 22.5 33.8 0.00 0.00 0.00 37 1012.9
20260505184708 26 68 14.5 16.1 0.00 0.00 0.00 38 1012.9
20260505184206 26 54 24.1 29.0 0.00 0.00 0.00 36 1012.9
20260505183702 26 17 22.5 29.0 0.00 0.00 0.00 37 1013.2
20260505183200 26 340 17.7 25.7 0.00 0.00 0.00 37 1013.1
20260505182656 26 75 4.8 9.7 0.00 0.00 0.00 38 1013.3
20260505182153 26 10 16.1 20.9 0.00 0.00 0.00 36 1013.3
20260505181649 26 28 19.3 20.9 0.00 0.00 0.00 36 1013.2
20260505181147 26 44 14.5 17.7 0.00 0.00 0.00 37 1013.5
20260505180643 26 13 25.7 30.6 0.00 0.00 0.00 39 1013.3
20260505180141 26 57 11.3 20.9 0.00 0.00 0.00 39 1013.5
20260505175636 26 353 16.1 20.9 0.00 0.00 0.00 37 1013.8
20260505175133 26 60 20.9 25.7 0.00 0.00 0.00 36 1013.7
20260505174630 26 23 22.5 25.7 0.00 0.00 0.00 35 1013.9
20260505174126 26 29 14.5 20.9 0.00 0.00 0.00 36 1013.8
20260505173623 26 16 17.7 29.0 0.00 0.00 0.00 37 1013.7
20260505173119 26 12 14.5 17.7 0.00 0.00 0.00 38 1013.7
20260505172617 25 346 9.7 16.1 0.00 0.00 0.00 38 1013.8
20260505172114 25 1 22.5 29.0 0.00 0.00 0.00 36 1013.9
20260505171608 25 36 8.0 9.7 0.00 0.00 0.00 39 1014.0
20260505171106 26 12 24.1 30.6 0.00 0.00 0.00 38 1014.2
20260505170602 25 51 14.5 17.7 0.00 0.00 0.00 39 1014.0
20260505170059 25 7 25.7 30.6 0.00 0.00 0.00 38 1014.2
20260505165554 25 117 3.2 8.0 0.00 0.00 0.00 42 1014.1
20260505165050 25 48 14.5 20.9 0.00 0.00 0.00 39 1014.3
20260505164546 25 0 29.0 33.8 0.00 0.00 0.00 38 1014.3
20260505164044 25 49 4.8 8.0 0.00 0.00 0.00 42 1014.5
20260505163542 25 64 9.7 17.7 0.00 0.00 0.00 43 1014.4
20260505163039 25 7 20.9 33.8 0.00 0.00 0.00 42 1014.8
20260505162532 25 37 11.3 20.9 0.00 0.00 0.00 43 1014.6
20260505162029 25 63 8.0 12.9 0.00 0.00 0.00 44 1014.8
20260505161525 25 307 14.5 17.7 0.00 0.00 0.00 44 1014.8
20260505161023 25 68 8.0 9.7 0.00 0.00 0.00 42 1014.9
20260505160521 24 334 9.7 16.1 0.00 0.00 0.00 45 1014.8
20260505152957 24 48 17.7 25.7 0.00 0.00 0.00 46 1014.9
20260505152454 23 346 17.7 25.7 0.00 0.00 0.00 46 1014.9
20260505151949 23 69 16.1 17.7 0.00 0.00 0.00 46 1014.9
20260505151445 23 72 4.8 4.8 0.00 0.00 0.00 48 1014.8
20260505150943 24 61 9.7 17.7 0.00 0.00 0.00 46 1014.7
20260505150439 23 327 22.5 30.6 0.00 0.00 0.00 45 1014.6
20260505140409 22 13 9.7 16.1 0.00 0.00 0.00 48 1014.9
20260505124823 19 42 9.7 9.7 0.00 0.00 0.00 56 1015.6
20260505124320 18 46 6.4 8.0 0.00 0.00 0.00 57 1015.6
20260505123816 18 80 1.6 3.2 0.00 0.00 0.00 58 1015.7
20260505123313 17 60 8.0 9.7 0.00 0.00 0.00 59 1015.7
20260505122808 17 103 1.6 3.2 0.00 0.00 0.00 60 1015.5
20260505122306 17 81 3.2 3.2 0.00 0.00 0.00 60 1015.6
20260505121802 17 71 4.8 8.0 0.00 0.00 0.00 61 1015.6
20260505121300 16 85 6.4 12.9 0.00 0.00 0.00 60 1015.6
20260505120756 17 77 4.8 8.0 0.00 0.00 0.00 61 1015.3
20260505120252 16 82 3.2 8.0 0.00 0.00 0.00 61 1015.5
20260505115751 16 320 9.7 12.9 0.00 0.00 0.00 63 1015.4
20260505115248 16 28 4.8 8.0 0.00 0.00 0.00 62 1015.3
20260505114746 16 51 9.7 12.9 0.00 0.00 0.00 64 1015.2
20260505114241 15 78 4.8 8.0 0.00 0.00 0.00 64 1015.4
20260505113738 15 313 9.7 9.7 0.00 0.00 0.00 65 1015.3
20260505113235 15 328 8.0 12.9 0.00 0.00 0.00 65 1015.2
20260505112731 15 86 3.2 3.2 0.00 0.00 0.00 65 1015.3
20260505112229 15 75 3.2 4.8 0.00 0.00 0.00 66 1015.2
20260505111729 15 46 9.7 9.7 0.00 0.00 0.00 66 1015.2
20260505111225 15 65 6.4 8.0 0.00 0.00 0.00 67 1015.0
20260505110721 15 35 11.3 17.7 0.00 0.00 0.00 67 1015.0
20260505110219 14 18 6.4 8.0 0.00 0.00 0.00 68 1014.9
20260505102154 15 80 4.8 4.8 0.00 0.00 0.00 67 1014.4
20260505101653 14 11 6.4 17.7 0.00 0.00 0.00 68 1014.4
20260505101148 15 14 12.9 20.9 0.00 0.00 0.00 67 1014.2
20260505100644 15 69 3.2 4.8 0.00 0.00 0.00 68 1014.5
20260505100142 15 355 8.0 9.7 0.00 0.00 0.00 67 1014.3
20260505095638 14 88 14.5 16.1 0.00 0.00 0.00 68 1014.3
20260505095135 14 10 8.0 9.7 0.00 0.00 0.00 68 1014.3
20260505094631 14 75 1.6 3.2 0.00 0.00 0.00 68 1014.2
20260505094127 14 66 3.2 3.2 0.00 0.00 0.00 69 1014.2
20260505093624 14 42 4.8 8.0 0.00 0.00 0.00 69 1014.0
20260505093121 14 53 3.2 4.8 0.00 0.00 0.00 69 1014.2
20260505092618 14 80 3.2 3.2 0.00 0.00 0.00 69 1014.2
20260505092117 13 71 3.2 4.8 0.00 0.00 0.00 70 1014.2
20260505091613 13 348 11.3 16.1 0.00 0.00 0.00 70 1014.0
20260505091112 14 36 6.4 9.7 0.00 0.00 0.00 70 1014.0
20260505090609 14 51 8.0 16.1 0.00 0.00 0.00 70 1014.2
20260505090107 14 79 4.8 8.0 0.00 0.00 0.00 70 1013.9
20260505085604 14 85 0.0 3.2 0.00 0.00 0.00 70 1014.2
20260505085102 14 76 3.2 3.2 0.00 0.00 0.00 70 1014.0
20260505084600 14 45 9.7 16.1 0.00 0.00 0.00 69 1014.2
20260505084058 14 13 4.8 9.7 0.00 0.00 0.00 70 1014.0
20260505083555 14 52 6.4 8.0 0.00 0.00 0.00 70 1014.1
20260505083051 14 43 4.8 8.0 0.00 0.00 0.00 70 1014.0
20260505082547 15 56 1.6 3.2 0.00 0.00 0.00 70 1014.1
20260505082044 15 28 4.8 8.0 0.00 0.00 0.00 69 1014.0
20260505081541 15 41 4.8 8.0 0.00 0.00 0.00 69 1014.0
20260505081038 15 11 4.8 8.0 0.00 0.00 0.00 69 1013.9
20260505080534 15 53 3.2 4.8 0.00 0.00 0.00 68 1013.8
20260505080031 15 6 6.4 9.7 0.00 0.00 0.00 68 1013.9
20260505075527 15 46 1.6 3.2 0.00 0.00 0.00 68 1013.9
20260505075024 15 31 8.0 9.7 0.00 0.00 0.00 68 1013.7
20260505074521 15 31 9.7 16.1 0.00 0.00 0.00 68 1013.7
20260505074018 15 82 1.6 4.8 0.00 0.00 0.00 67 1013.7
20260505073515 15 75 1.6 3.2 0.00 0.00 0.00 67 1013.6
20260505073014 15 34 4.8 8.0 0.00 0.00 0.00 67 1013.6
20260505072509 15 57 8.0 9.7 0.00 0.00 0.00 67 1013.7
20260505072005 15 87 3.2 4.8 0.00 0.00 0.00 67 1013.6
20260505071501 15 40 4.8 8.0 0.00 0.00 0.00 67 1013.7
20260505070959 15 76 1.6 3.2 0.00 0.00 0.00 67 1013.7
20260505070456 15 29 1.6 4.8 0.00 0.00 0.00 67 1013.6
20260505065952 15 67 4.8 4.8 0.00 0.00 0.00 67 1013.5
20260505065448 15 15 4.8 8.0 0.00 0.00 0.00 67 1013.6
20260505064945 15 56 6.4 9.7 0.00 0.00 0.00 67 1013.7
20260505064442 15 18 4.8 8.0 0.00 0.00 0.00 68 1013.6
20260505063940 15 66 3.2 4.8 0.00 0.00 0.00 68 1013.7
20260505063436 15 340 9.7 12.9 0.00 0.00 0.00 68 1013.9
20260505062933 15 40 6.4 8.0 0.00 0.00 0.00 68 1013.7
20260505062430 15 319 9.7 12.9 0.00 0.00 0.00 68 1013.8
20260505061927 15 69 3.2 4.8 0.00 0.00 0.00 68 1013.8
20260505061425 15 57 4.8 8.0 0.00 0.00 0.00 68 1013.7
20260505060922 15 82 3.2 4.8 0.00 0.00 0.00 68 1013.8
20260505060419 15 52 4.8 8.0 0.00 0.00 0.00 68 1013.8
20260505055915 15 82 1.6 3.2 0.00 0.00 0.00 67 1013.7
20260505055412 15 65 4.8 4.8 0.00 0.00 0.00 67 1013.5
20260505054908 15 83 0.0 3.2 0.00 0.00 0.00 67 1013.7
20260505054406 15 67 1.6 3.2 0.00 0.00 0.00 66 1013.7
20260505053904 16 59 3.2 4.8 0.00 0.00 0.00 66 1013.7
20260505053401 16 83 0.0 0.0 0.00 0.00 0.00 66 1013.8
20260505052857 16 70 0.0 3.2 0.00 0.00 0.00 66 1013.8
20260505052354 16 82 1.6 3.2 0.00 0.00 0.00 65 1014.0
20260505051852 16 62 4.8 4.8 0.00 0.00 0.00 65 1013.9
20260505051348 16 16 12.9 16.1 0.00 0.00 0.00 64 1013.9
20260505050847 16 73 3.2 4.8 0.00 0.00 0.00 64 1014.1
20260505050345 16 245 4.8 8.0 0.00 0.00 0.00 64 1014.1
20260505041312 16 77 1.6 3.2 0.00 0.00 0.00 61 1013.8
20260505040809 16 65 3.2 4.8 0.00 0.00 0.00 60 1013.9
20260505040307 16 72 1.6 3.2 0.00 0.00 0.00 59 1013.6
20260505035803 16 81 3.2 3.2 0.00 0.00 0.00 60 1013.5
20260505035259 16 34 1.6 4.8 0.00 0.00 0.00 60 1013.5
20260505034757 16 76 4.8 8.0 0.00 0.00 0.00 59 1013.5
20260505034253 16 40 6.4 8.0 0.00 0.00 0.00 59 1013.7
20260505033750 16 49 4.8 8.0 0.00 0.00 0.00 59 1013.6
20260505033248 16 18 6.4 8.0 0.00 0.00 0.00 59 1013.7
20260505032745 16 78 3.2 3.2 0.00 0.00 0.00 59 1013.8
20260505032241 16 322 6.4 8.0 0.00 0.00 0.00 59 1013.6
20260505031739 17 14 4.8 4.8 0.00 0.00 0.00 58 1013.6
20260505031235 17 69 3.2 3.2 0.00 0.00 0.00 57 1013.4
20260505030732 17 0 4.8 4.8 0.00 0.00 0.00 57 1013.8
20260505030228 17 68 3.2 3.2 0.00 0.00 0.00 56 1013.6
20260505025724 17 63 3.2 3.2 0.00 0.00 0.00 56 1013.7
20260505025222 17 66 4.8 4.8 0.00 0.00 0.00 56 1013.6
20260505024720 17 49 3.2 4.8 0.00 0.00 0.00 56 1013.6
20260505024217 17 348 4.8 8.0 0.00 0.00 0.00 56 1013.6
20260505023714 17 56 8.0 9.7 0.00 0.00 0.00 55 1013.7
20260505023211 17 59 4.8 8.0 0.00 0.00 0.00 55 1013.5
20260505022709 18 49 4.8 8.0 0.00 0.00 0.00 54 1013.8
20260505022206 18 20 9.7 12.9 0.00 0.00 0.00 54 1013.6
20260505021702 18 12 4.8 8.0 0.00 0.00 0.00 53 1013.5
20260505021159 18 17 4.8 8.0 0.00 0.00 0.00 54 1013.6
20260505020655 18 50 4.8 4.8 0.00 0.00 0.00 53 1013.6
20260505020151 18 79 3.2 4.8 0.00 0.00 0.00 53 1013.5
20260505015648 18 1 4.8 4.8 0.00 0.00 0.00 52 1013.4
20260505015145 18 33 9.7 9.7 0.00 0.00 0.00 51 1013.5
20260505014642 19 34 4.8 8.0 0.00 0.00 0.00 51 1013.5
20260505014139 19 46 6.4 8.0 0.00 0.00 0.00 51 1013.8
20260505013636 19 57 6.4 12.9 0.00 0.00 0.00 50 1013.4
20260505013133 19 64 16.1 20.9 0.00 0.00 0.00 49 1013.3
20260505012631 19 82 3.2 4.8 0.00 0.00 0.00 50 1013.3
20260505012128 19 13 6.4 12.9 0.00 0.00 0.00 49 1013.4
20260505011623 20 354 12.9 16.1 0.00 0.00 0.00 49 1013.2
20260505011121 19 314 1.6 4.8 0.00 0.00 0.00 50 1013.0
20260505010616 20 41 6.4 8.0 0.00 0.00 0.00 49 1013.0
20260505010113 20 80 3.2 8.0 0.00 0.00 0.00 48 1013.1
20260505005609 20 321 9.7 12.9 0.00 0.00 0.00 48 1013.0
20260505005107 20 341 11.3 12.9 0.00 0.00 0.00 48 1012.9
20260505004604 20 71 1.6 3.2 0.00 0.00 0.00 49 1013.0
20260505004100 20 39 4.8 8.0 0.00 0.00 0.00 47 1012.9
20260505003558 20 96 4.8 8.0 0.00 0.00 0.00 47 1012.8
20260505003055 20 92 8.0 9.7 0.00 0.00 0.00 47 1012.9
20260505002555 20 20 3.2 4.8 0.00 0.00 0.00 47 1012.9
20260505002055 20 36 11.3 12.9 0.00 0.00 0.00 46 1012.9
20260505001551 20 336 9.7 9.7 0.00 0.00 0.00 45 1012.9
20260505001048 20 351 16.1 17.7 0.00 0.00 0.00 45 1012.8
20260505000546 21 317 11.3 16.1 0.00 0.00 0.00 44 1012.9
20260505000043 21 61 6.4 8.0 0.00 0.00 0.00 45 1012.9
20260504235540 21 317 14.5 20.9 0.00 0.00 0.00 44 1012.8
20260504235037 21 38 14.5 17.7 0.00 0.00 0.00 43 1012.6
20260504234534 21 77 11.3 16.1 0.00 0.00 0.00 43 1012.8
20260504234031 21 351 17.7 25.7 0.00 0.00 0.00 43 1012.5
20260504233526 21 84 9.7 16.1 0.00 0.00 0.00 43 1012.6
20260504233023 21 9 9.7 16.1 0.00 0.00 0.00 42 1012.6
20260504232520 21 91 6.4 8.0 0.00 0.00 0.00 42 1012.5
20260504232018 21 138 6.4 8.0 0.00 0.00 0.00 42 1012.5
20260504231514 21 40 17.7 29.0 0.00 0.00 0.00 41 1012.6
20260504231010 22 84 6.4 9.7 0.00 0.00 0.00 41 1012.5
20260504230507 22 26 8.0 9.7 0.00 0.00 0.00 40 1012.7
20260504230006 22 57 8.0 9.7 0.00 0.00 0.00 40 1012.5
20260504225502 22 340 9.7 16.1 0.00 0.00 0.00 40 1012.5
20260504225000 22 33 9.7 9.7 0.00 0.00 0.00 40 1012.7
20260504224456 23 70 1.6 3.2 0.00 0.00 0.00 41 1012.6
20260504223953 23 26 14.5 17.7 0.00 0.00 0.00 38 1012.4
20260504223449 22 6 14.5 17.7 0.00 0.00 0.00 39 1012.5
20260504222945 22 38 11.3 17.7 0.00 0.00 0.00 40 1012.5
20260504222443 23 46 8.0 9.7 0.00 0.00 0.00 39 1012.4
20260504221940 23 347 8.0 9.7 0.00 0.00 0.00 39 1012.5
20260504221437 23 51 14.5 17.7 0.00 0.00 0.00 38 1012.5
20260504220934 23 244 9.7 12.9 0.00 0.00 0.00 39 1012.5
20260504220430 23 322 30.6 35.4 0.00 0.00 0.00 37 1012.5
20260504215928 22 353 14.5 20.9 0.00 0.00 0.00 38 1012.5
20260504215424 22 296 19.3 22.5 0.00 0.00 0.00 39 1012.4
20260504214921 22 312 11.3 16.1 0.00 0.00 0.00 39 1012.4
20260504214417 22 31 14.5 20.9 0.00 0.00 0.00 38 1012.3
20260504213914 22 299 11.3 16.1 0.00 0.00 0.00 38 1012.4
20260504213410 22 287 14.5 16.1 0.00 0.00 0.00 38 1012.5
20260504212908 22 11 16.1 25.7 0.00 0.00 0.00 38 1012.4
20260504212403 22 330 22.5 30.6 0.00 0.00 0.00 38 1012.5
20260504211901 22 359 17.7 20.9 0.00 0.00 0.00 38 1012.5
20260504211357 22 343 16.1 17.7 0.00 0.00 0.00 38 1012.5
20260504210855 22 347 11.3 22.5 0.00 0.00 0.00 39 1012.5
20260504210351 23 30 11.3 16.1 0.00 0.00 0.00 37 1012.6
20260504205848 23 5 9.7 9.7 0.00 0.00 0.00 38 1012.7
20260504205346 22 335 14.5 17.7 0.00 0.00 0.00 38 1012.7
20260504204844 22 33 8.0 9.7 0.00 0.00 0.00 41 1012.6
20260504204343 22 317 17.7 20.9 0.00 0.00 0.00 38 1012.6
20260504203841 22 134 11.3 12.9 0.00 0.00 0.00 41 1012.6
20260504203338 22 23 19.3 22.5 0.00 0.00 0.00 39 1012.7
20260504202834 22 272 16.1 17.7 0.00 0.00 0.00 39 1012.9
20260504202331 23 39 11.3 16.1 0.00 0.00 0.00 38 1012.8
20260504201828 23 272 8.0 12.9 0.00 0.00 0.00 40 1012.9
20260504201325 22 64 6.4 8.0 0.00 0.00 0.00 38 1012.8
20260504200822 22 72 11.3 12.9 0.00 0.00 0.00 38 1013.1
20260504200319 23 276 8.0 9.7 0.00 0.00 0.00 39 1013.2
20260504195815 23 58 11.3 16.1 0.00 0.00 0.00 40 1013.1